Location: Althorst
(53.6379°N, 10.7715°E)
Time: 11:49:59
(UTC+00:00)

SL-16 R/B - Pass Details

Date: 10 December 2019
Orbit: 843 x 845 km, 71.0° (Epoch: 26 January)

Event Time Altitude Azimuth Distance (km) Brightness Sun altitude
Rises 16:00:33 0° 242° (WSW) 3,398 7.9 -8.7°
Reaches altitude 10° 16:03:11 10° 252° (WSW) 2,467 6.3 -9.1°
Maximum altitude 16:08:22 36° 318° (NW) 1,326 3.4 -9.8°
Drops below altitude 10° 16:13:35 10° 24° (NNE) 2,479 4.2 -10.5°
Enters shadow 16:14:30 - 28° (NNE) 2,792 4.4 -10.6°
